980  
ASUS41 KBGM 090310  
RWRBGM  
 
REGIONAL WEATHER ROUNDUP  
NATIONAL WEATHER SERVICE BINGHAMTON NY  
1000 PM EST THU DEC 08 2022  
 
NOTE: "FAIR" INDICATES FEW OR NO CLOUDS BELOW 12,000 FEET WITH NO  
SIGNIFICANT WEATHER AND/OR S TO VISIBILITY
.  
 
* = STATION(S) THAT DOES NOT REPORT PRECIPITATION, SUCH AS RAIN,  
SNOW, ETC, ALSO NO THUNDER OR FOG.
 
 
NYZ009-015>018-022>025-036-037-044>046-055>057-062-090400   
..CENTRAL NEW YORK
 
 
 
CITY SKY/WX TMP DP RH WIND PRES REMARKS
 
BINGHAMTON CLOUDY 33 29 85 N10 30.27F WCI 25  
CORTLAND CLOUDY 34 32 93 NW5 30.32S WCI 30  
DANSVILLE CLEAR 34 28 79 NW7 30.36R WCI 28  
ELMIRA CLOUDY 37 30 75 NE7 30.32S WCI 32  
ENDICOTT CLOUDY 37 30 75 NE5 30.31S WCI 34  
ITHACA CLOUDY 35 32 88 NW7 30.33S WCI 29  
MONTICELLO PTCLDY 33 30 88 NW7 30.25S WCI 27  
NORWICH CLOUDY 34 32 93 CALM 30.34S  
ONEONTA N/A 30 30 100 CALM 30.28S  
PENN YAN MOCLDY 33 29 85 VRB5 30.34S WCI 29  
ROME CLEAR 33 27 78 CALM 30.36R  
SENECA FALLS CLOUDY 36 30 80 NW5 30.36S WCI 32  
SIDNEY CLOUDY 36 34 93 CALM 30.30F  
SKANEATELES CLOUDY 34 34 100 CALM 30.33S  
SYRACUSE CLOUDY 37 33 85 NW5 30.35S WCI 33  

 
 
PAZ038>040-043-044-047-048-072-090400   
..NORTHEAST PENNSYLVANIA
 
 
 
CITY SKY/WX TMP DP RH WIND PRES REMARKS
 
HAZLETON MOCLDY 36 28 75 NW7 30.28S WCI 30  
SCRANTON MOCLDY 40 30 67 N7 30.27S  

 

 
KEY  
WCI = WIND CHILL INDEX  
VSB = VISIBILITY  
HX = HEAT INDEX  

 
 
 
CLICK HERE TO GO TO PREVIOUS BULLETINS.

The Nexlab NY Page
The Nexlab PA Page Main Text Page